TimeCST,TemperatureF,Dew PointF,Humidity,Sea Level PressureIn,VisibilityMPH,Wind Direction,Wind SpeedMPH,Gust SpeedMPH,PrecipitationIn,Events,Conditions,WindDirDegrees,DateUTC
12:53 AM,21.9,19.0,89,30.39,6.0,Calm,Calm,-,N/A,,Clear,0,2012-12-30 06:53:00
1:53 AM,23.0,19.9,88,30.43,6.0,SW,5.8,-,N/A,,Clear,230,2012-12-30 07:53:00
2:53 AM,19.9,17.1,89,30.43,5.0,Calm,Calm,-,N/A,,Clear,0,2012-12-30 08:53:00
3:53 AM,19.0,17.1,92,30.45,4.0,WSW,3.5,-,N/A,,Clear,240,2012-12-30 09:53:00
4:53 AM,19.9,16.0,85,30.45,4.0,Calm,Calm,-,N/A,,Clear,0,2012-12-30 10:53:00
5:53 AM,19.0,16.0,88,30.47,4.0,Calm,Calm,-,N/A,,Clear,0,2012-12-30 11:53:00
6:53 AM,18.0,16.0,92,30.48,4.0,Calm,Calm,-,N/A,,Clear,0,2012-12-30 12:53:00
7:53 AM,21.0,18.0,88,30.51,3.0,Calm,Calm,-,N/A,,Clear,0,2012-12-30 13:53:00
8:53 AM,26.1,23.0,88,30.53,4.0,SW,5.8,-,N/A,,Clear,220,2012-12-30 14:53:00
9:53 AM,28.9,24.1,82,30.53,6.0,SW,3.5,-,N/A,,Haze,220,2012-12-30 15:53:00
10:53 AM,33.1,24.1,70,30.50,8.0,South,3.5,-,N/A,,Clear,180,2012-12-30 16:53:00
11:53 AM,36.0,25.0,64,30.46,8.0,South,4.6,-,N/A,,Clear,190,2012-12-30 17:53:00
12:53 PM,37.0,25.0,62,30.45,10.0,SSW,6.9,-,N/A,,Clear,200,2012-12-30 18:53:00
1:53 PM,37.9,25.0,60,30.44,10.0,SSW,5.8,-,N/A,,Clear,200,2012-12-30 19:53:00
2:53 PM,37.9,25.0,60,30.43,10.0,South,3.5,-,N/A,,Clear,190,2012-12-30 20:53:00
3:53 PM,37.9,26.1,62,30.44,10.0,SSW,3.5,-,N/A,,Clear,210,2012-12-30 21:53:00
4:53 PM,36.0,26.1,67,30.41,10.0,South,3.5,-,N/A,,Clear,170,2012-12-30 22:53:00
5:53 PM,36.0,25.0,64,30.42,10.0,Calm,Calm,-,N/A,,Clear,0,2012-12-30 23:53:00
6:53 PM,34.0,25.0,70,30.41,10.0,Calm,Calm,-,N/A,,Clear,0,2012-12-31 00:53:00
7:53 PM,34.0,25.0,70,30.39,10.0,SW,4.6,-,N/A,,Clear,220,2012-12-31 01:53:00
8:53 PM,30.9,25.0,79,30.40,10.0,WSW,3.5,-,N/A,,Clear,240,2012-12-31 02:53:00
9:53 PM,32.0,25.0,75,30.37,10.0,South,3.5,-,N/A,,Clear,190,2012-12-31 03:53:00
10:53 PM,33.1,25.0,72,30.34,10.0,South,3.5,-,N/A,,Clear,180,2012-12-31 04:53:00
11:53 PM,34.0,25.0,70,30.34,10.0,SSW,4.6,-,N/A,,Clear,210,2012-12-31 05:53:00